Station Historical Data
Daily Summary for August 18, 2017 Units:  English    Metric   Both
« Previous Day
Next Day »
Daily Weekly Monthly Yearly Custom
  High: Low: Average:
Temperature: 82.1 °F 72.2 °F 76.2 °F
Dew Point: 71.2 °F 62.3 °F 68.1 °F
Humidity: 91% 60% 76%
Wind Speed: 17.0mph 1.0mph 6.4mph
Wind Gust: 26.0mph - -
Wind- - WSW
Pressure: 29.80 in 29.70 in -
Precipitation: 0.00 in    
Historical Graphs
 
 
Tabular Data for August 18, 2017
Time Temperature Dew Point Pressure Wind Wind Speed Wind Gust Humidity Rainfall Rate (Hourly)
00:04 72.7 °F 69.9 °F 29.73 in SSW 2.0 mph 7.0 mph 91% 0.00 in
00:09 72.7 °F 69.9 °F 29.73 in SSE 2.0 mph 5.0 mph 91% 0.00 in
00:14 72.7 °F 69.9 °F 29.73 in SSW 3.0 mph 6.0 mph 91% 0.00 in
00:19 72.8 °F 70.0 °F 29.72 in SW 4.0 mph 8.0 mph 91% 0.00 in
00:24 72.8 °F 70.0 °F 29.72 in SSW 2.0 mph 8.0 mph 91% 0.00 in
00:29 73.0 °F 70.2 °F 29.72 in SSW 2.0 mph 8.0 mph 91% 0.00 in
00:34 73.1 °F 70.0 °F 29.72 in SSW 3.0 mph 8.0 mph 90% 0.00 in
00:39 73.1 °F 70.0 °F 29.72 in SSW 3.0 mph 10.0 mph 90% 0.00 in
00:44 73.2 °F 70.1 °F 29.72 in SSW 4.0 mph 11.0 mph 90% 0.00 in
00:49 73.3 °F 70.2 °F 29.71 in SSW 3.0 mph 8.0 mph 90% 0.00 in
00:54 73.4 °F 70.3 °F 29.72 in SSW 4.0 mph 8.0 mph 90% 0.00 in
00:59 73.5 °F 70.4 °F 29.71 in SSW 3.0 mph 9.0 mph 90% 0.00 in
01:04 73.5 °F 70.1 °F 29.71 in South 1.0 mph 9.0 mph 89% 0.00 in
01:09 73.7 °F 70.3 °F 29.71 in South 3.0 mph 9.0 mph 89% 0.00 in
01:14 73.7 °F 70.3 °F 29.71 in West 3.0 mph 7.0 mph 89% 0.00 in
01:19 73.7 °F 70.3 °F 29.71 in SW 4.0 mph 9.0 mph 89% 0.00 in
01:24 73.8 °F 70.4 °F 29.71 in SW 4.0 mph 9.0 mph 89% 0.00 in
01:29 73.9 °F 70.5 °F 29.71 in SW 3.0 mph 9.0 mph 89% 0.00 in
01:34 74.0 °F 70.2 °F 29.71 in SW 4.0 mph 11.0 mph 88% 0.00 in
01:39 74.1 °F 70.3 °F 29.71 in SW 2.0 mph 7.0 mph 88% 0.00 in
01:44 74.2 °F 70.4 °F 29.71 in South 3.0 mph 6.0 mph 88% 0.00 in
01:49 74.3 °F 70.5 °F 29.70 in SW 4.0 mph 6.0 mph 88% 0.00 in
01:54 74.2 °F 70.4 °F 29.70 in SW 3.0 mph 9.0 mph 88% 0.00 in
01:59 74.2 °F 70.4 °F 29.70 in SW 4.0 mph 9.0 mph 88% 0.00 in
02:04 74.2 °F 70.4 °F 29.70 in SW 3.0 mph 8.0 mph 88% 0.00 in
02:09 74.3 °F 70.5 °F 29.70 in SSW 4.0 mph 8.0 mph 88% 0.00 in
02:14 74.3 °F 70.5 °F 29.70 in SW 4.0 mph 8.0 mph 88% 0.00 in
02:19 74.3 °F 70.5 °F 29.70 in WSW 5.0 mph 10.0 mph 88% 0.00 in
02:24 74.4 °F 70.6 °F 29.70 in SW 5.0 mph 10.0 mph 88% 0.00 in
02:29 74.4 °F 70.6 °F 29.70 in SW 4.0 mph 8.0 mph 88% 0.00 in
02:34 74.5 °F 70.7 °F 29.70 in South 5.0 mph 9.0 mph 88% 0.00 in
02:39 74.6 °F 70.8 °F 29.70 in SW 3.0 mph 6.0 mph 88% 0.00 in
02:44 74.6 °F 70.8 °F 29.71 in SW 6.0 mph 9.0 mph 88% 0.00 in
02:49 74.7 °F 70.9 °F 29.71 in WSW 3.0 mph 10.0 mph 88% 0.00 in
02:54 74.8 °F 71.0 °F 29.70 in SW 4.0 mph 10.0 mph 88% 0.00 in
02:59 74.9 °F 71.1 °F 29.71 in SW 5.0 mph 12.0 mph 88% 0.00 in
03:04 74.9 °F 70.8 °F 29.70 in SW 6.0 mph 12.0 mph 87% 0.00 in
03:09 75.0 °F 70.9 °F 29.70 in SW 6.0 mph 14.0 mph 87% 0.00 in
03:14 75.0 °F 70.9 °F 29.70 in WSW 4.0 mph 10.0 mph 87% 0.00 in
03:19 75.0 °F 70.9 °F 29.70 in SW 5.0 mph 8.0 mph 87% 0.00 in
03:24 75.0 °F 70.9 °F 29.70 in SW 4.0 mph 8.0 mph 87% 0.00 in
03:29 75.0 °F 70.9 °F 29.70 in SW 5.0 mph 9.0 mph 87% 0.00 in
03:34 75.0 °F 70.9 °F 29.70 in West 6.0 mph 11.0 mph 87% 0.00 in
03:39 75.0 °F 70.9 °F 29.70 in WSW 3.0 mph 9.0 mph 87% 0.00 in
03:44 75.0 °F 70.9 °F 29.70 in SW 4.0 mph 11.0 mph 87% 0.00 in
03:49 75.1 °F 71.0 °F 29.70 in WSW 3.0 mph 10.0 mph 87% 0.00 in
03:54 75.2 °F 71.1 °F 29.70 in SW 5.0 mph 15.0 mph 87% 0.00 in
03:59 75.3 °F 71.2 °F 29.70 in SW 6.0 mph 15.0 mph 87% 0.00 in
04:04 75.3 °F 71.2 °F 29.70 in WSW 6.0 mph 14.0 mph 87% 0.00 in
04:09 75.4 °F 70.9 °F 29.70 in WSW 6.0 mph 13.0 mph 86% 0.00 in
04:14 75.4 °F 70.9 °F 29.70 in WSW 5.0 mph 17.0 mph 86% 0.00 in
04:19 75.4 °F 70.9 °F 29.70 in WNW 6.0 mph 18.0 mph 86% 0.00 in
04:24 75.3 °F 70.8 °F 29.70 in WSW 6.0 mph 18.0 mph 86% 0.00 in
04:29 75.4 °F 70.9 °F 29.70 in WSW 7.0 mph 15.0 mph 86% 0.00 in
04:34 75.3 °F 70.5 °F 29.70 in West 7.0 mph 14.0 mph 85% 0.00 in
04:39 75.2 °F 70.4 °F 29.70 in WSW 4.0 mph 13.0 mph 85% 0.00 in
04:44 75.1 °F 70.3 °F 29.70 in South 6.0 mph 13.0 mph 85% 0.00 in
04:49 75.1 °F 70.3 °F 29.70 in South 7.0 mph 13.0 mph 85% 0.00 in
04:54 75.1 °F 70.3 °F 29.70 in SW 5.0 mph 13.0 mph 85% 0.00 in
04:59 75.1 °F 70.3 °F 29.70 in SW 6.0 mph 14.0 mph 85% 0.00 in
05:04 75.1 °F 70.3 °F 29.70 in WSW 5.0 mph 15.0 mph 85% 0.00 in
05:09 75.1 °F 70.3 °F 29.70 in WSW 6.0 mph 17.0 mph 85% 0.00 in
05:14 75.2 °F 70.0 °F 29.70 in WSW 12.0 mph 15.0 mph 84% 0.00 in
05:19 75.3 °F 70.1 °F 29.70 in SW 5.0 mph 14.0 mph 84% 0.00 in
05:24 75.3 °F 70.1 °F 29.70 in SW 7.0 mph 18.0 mph 84% 0.00 in
05:29 75.3 °F 70.1 °F 29.70 in SW 7.0 mph 18.0 mph 84% 0.00 in
05:34 75.2 °F 70.0 °F 29.70 in SW 6.0 mph 13.0 mph 84% 0.00 in
05:39 75.2 °F 70.0 °F 29.70 in WSW 10.0 mph 14.0 mph 84% 0.00 in
05:44 75.1 °F 69.9 °F 29.71 in SW 5.0 mph 12.0 mph 84% 0.00 in
05:49 75.0 °F 69.8 °F 29.71 in West 5.0 mph 12.0 mph 84% 0.00 in
05:54 74.9 °F 69.7 °F 29.71 in West 4.0 mph 14.0 mph 84% 0.00 in
05:59 74.9 °F 70.1 °F 29.71 in WSW 7.0 mph 16.0 mph 85% 0.00 in
06:04 74.8 °F 70.0 °F 29.72 in SW 7.0 mph 16.0 mph 85% 0.00 in
06:09 74.8 °F 70.0 °F 29.71 in SW 10.0 mph 14.0 mph 85% 0.00 in
06:14 74.7 °F 69.9 °F 29.72 in WSW 6.0 mph 19.0 mph 85% 0.00 in
06:19 74.7 °F 69.9 °F 29.72 in WSW 9.0 mph 10.0 mph 85% 0.00 in
06:24 74.6 °F 69.8 °F 29.72 in SW 6.0 mph 15.0 mph 85% 0.00 in
06:29 74.6 °F 69.8 °F 29.72 in WSW 7.0 mph 15.0 mph 85% 0.00 in
06:34 74.6 °F 69.8 °F 29.72 in WSW 6.0 mph 16.0 mph 85% 0.00 in
06:39 74.6 °F 69.8 °F 29.72 in WSW 6.0 mph 16.0 mph 85% 0.00 in
06:44 74.6 °F 69.8 °F 29.72 in SW 6.0 mph 14.0 mph 85% 0.00 in
06:49 74.6 °F 69.8 °F 29.72 in SW 5.0 mph 12.0 mph 85% 0.00 in
06:54 74.5 °F 70.0 °F 29.72 in SW 5.0 mph 13.0 mph 86% 0.00 in
06:59 74.4 °F 69.6 °F 29.72 in SW 6.0 mph 13.0 mph 85% 0.00 in
07:04 74.3 °F 69.5 °F 29.72 in WSW 8.0 mph 11.0 mph 85% 0.00 in
07:09 74.0 °F 69.2 °F 29.73 in SW 6.0 mph 10.0 mph 85% 0.00 in
07:14 74.0 °F 69.5 °F 29.72 in SW 3.0 mph 10.0 mph 86% 0.00 in
07:19 74.0 °F 69.5 °F 29.72 in WSW 3.0 mph 10.0 mph 86% 0.00 in
07:24 74.0 °F 69.2 °F 29.72 in West 6.0 mph 12.0 mph 85% 0.00 in
07:29 74.2 °F 69.4 °F 29.72 in WSW 4.0 mph 8.0 mph 85% 0.00 in
07:34 74.2 °F 69.4 °F 29.72 in SW 5.0 mph 12.0 mph 85% 0.00 in
07:39 74.4 °F 69.2 °F 29.72 in SW 5.0 mph 12.0 mph 84% 0.00 in
07:44 74.6 °F 69.4 °F 29.72 in SW 5.0 mph 12.0 mph 84% 0.00 in
07:49 74.7 °F 69.5 °F 29.73 in SW 5.0 mph 12.0 mph 84% 0.00 in
07:54 74.9 °F 69.4 °F 29.73 in SW 5.0 mph 10.0 mph 83% 0.00 in
07:59 75.0 °F 69.1 °F 29.73 in SW 6.0 mph 12.0 mph 82% 0.00 in
08:04 75.2 °F 69.3 °F 29.72 in SSE 6.0 mph 14.0 mph 82% 0.00 in
08:09 75.4 °F 69.2 °F 29.72 in SW 7.0 mph 12.0 mph 81% 0.00 in
08:14 75.6 °F 69.4 °F 29.72 in SW 7.0 mph 12.0 mph 81% 0.00 in
08:19 75.8 °F 69.2 °F 29.72 in SW 4.0 mph 12.0 mph 80% 0.00 in
08:24 76.1 °F 69.5 °F 29.72 in SW 5.0 mph 12.0 mph 80% 0.00 in
08:29 76.3 °F 69.7 °F 29.72 in SSW 6.0 mph 8.0 mph 80% 0.00 in
08:34 76.3 °F 69.3 °F 29.72 in SW 5.0 mph 11.0 mph 79% 0.00 in
08:39 76.6 °F 69.6 °F 29.72 in SW 6.0 mph 13.0 mph 79% 0.00 in
08:44 76.9 °F 69.1 °F 29.72 in SW 5.0 mph 13.0 mph 77% 0.00 in
08:49 77.0 °F 69.2 °F 29.72 in SSW 5.0 mph 14.0 mph 77% 0.00 in
08:54 77.1 °F 69.3 °F 29.72 in SSW 10.0 mph 14.0 mph 77% 0.00 in
08:59 77.4 °F 69.2 °F 29.72 in WSW 7.0 mph 11.0 mph 76% 0.00 in
09:04 77.7 °F 69.1 °F 29.72 in WSW 6.0 mph 15.0 mph 75% 0.00 in
09:09 77.8 °F 69.2 °F 29.72 in SW 6.0 mph 15.0 mph 75% 0.00 in
09:14 78.1 °F 69.1 °F 29.72 in SW 6.0 mph 11.0 mph 74% 0.00 in
09:19 78.1 °F 68.7 °F 29.72 in SW 3.0 mph 12.0 mph 73% 0.00 in
09:24 78.4 °F 69.0 °F 29.72 in SSW 4.0 mph 12.0 mph 73% 0.00 in
09:29 78.9 °F 69.1 °F 29.72 in SW 6.0 mph 10.0 mph 72% 0.00 in
09:34 78.9 °F 68.7 °F 29.72 in SW 4.0 mph 15.0 mph 71% 0.00 in
09:39 78.9 °F 68.7 °F 29.72 in WSW 7.0 mph 15.0 mph 71% 0.00 in
09:44 79.0 °F 68.8 °F 29.73 in SW 7.0 mph 14.0 mph 71% 0.00 in
09:49 79.2 °F 68.1 °F 29.73 in WSW 7.0 mph 14.0 mph 69% 0.00 in
09:54 79.1 °F 68.1 °F 29.72 in WSW 10.0 mph 15.0 mph 69% 0.00 in
09:59 79.4 °F 68.8 °F 29.72 in SW 10.0 mph 12.0 mph 70% 0.00 in
10:04 79.1 °F 68.1 °F 29.72 in SW 7.0 mph 18.0 mph 69% 0.00 in
10:09 79.4 °F 68.3 °F 29.72 in SW 7.0 mph 18.0 mph 69% 0.00 in
10:14 79.3 °F 67.8 °F 29.72 in SW 8.0 mph 16.0 mph 68% 0.00 in
10:19 79.4 °F 67.9 °F 29.72 in SW 9.0 mph 17.0 mph 68% 0.00 in
10:24 79.6 °F 68.1 °F 29.72 in SW 9.0 mph 17.0 mph 68% 0.00 in
10:29 79.7 °F 68.2 °F 29.72 in SW 7.0 mph 16.0 mph 68% 0.00 in
10:34 79.8 °F 68.3 °F 29.72 in South 7.0 mph 19.0 mph 68% 0.00 in
10:39 80.0 °F 68.5 °F 29.72 in West 8.0 mph 16.0 mph 68% 0.00 in
10:44 80.3 °F 68.8 °F 29.72 in WSW 10.0 mph 14.0 mph 68% 0.00 in
10:49 80.8 °F 68.8 °F 29.72 in WSW 8.0 mph 12.0 mph 67% 0.00 in
10:54 80.7 °F 69.2 °F 29.72 in SW 6.0 mph 17.0 mph 68% 0.00 in
10:59 80.6 °F 69.1 °F 29.72 in West 4.0 mph 15.0 mph 68% 0.00 in
11:04 80.7 °F 68.7 °F 29.72 in West 17.0 mph 17.0 mph 67% 0.00 in
11:09 80.5 °F 68.5 °F 29.72 in WSW 7.0 mph 17.0 mph 67% 0.00 in
11:14 80.0 °F 68.9 °F 29.72 in WSW 7.0 mph 17.0 mph 69% 0.00 in
11:19 79.9 °F 68.4 °F 29.72 in WSW 9.0 mph 17.0 mph 68% 0.00 in
11:24 80.9 °F 69.3 °F 29.72 in SW 8.0 mph 17.0 mph 68% 0.00 in
11:29 81.2 °F 68.8 °F 29.72 in SW 10.0 mph 16.0 mph 66% 0.00 in
11:34 81.1 °F 69.1 °F 29.72 in WSW 5.0 mph 18.0 mph 67% 0.00 in
11:39 81.2 °F 68.8 °F 29.71 in WSW 8.0 mph 18.0 mph 66% 0.00 in
11:44 81.9 °F 69.0 °F 29.72 in WSW 8.0 mph 15.0 mph 65% 0.00 in
11:49 81.7 °F 68.8 °F 29.71 in SW 8.0 mph 17.0 mph 65% 0.00 in
11:54 81.5 °F 68.6 °F 29.71 in SW 10.0 mph 19.0 mph 65% 0.00 in
11:59 81.9 °F 69.0 °F 29.71 in South 10.0 mph 19.0 mph 65% 0.00 in
12:04 81.7 °F 68.3 °F 29.71 in SE 8.0 mph 22.0 mph 64% 0.00 in
12:09 81.8 °F 68.9 °F 29.71 in SW 9.0 mph 22.0 mph 65% 0.00 in
12:14 81.9 °F 69.4 °F 29.71 in WSW 10.0 mph 17.0 mph 66% 0.00 in
12:19 82.0 °F 69.5 °F 29.72 in SW 14.0 mph 16.0 mph 66% 0.00 in
12:24 82.1 °F 70.5 °F 29.72 in WSW 7.0 mph 17.0 mph 68% 0.00 in
12:29 81.3 °F 70.2 °F 29.71 in WSW 9.0 mph 21.0 mph 69% 0.00 in
12:34 80.5 °F 70.2 °F 29.71 in WSW 4.0 mph 21.0 mph 71% 0.00 in
12:39 79.9 °F 70.1 °F 29.71 in WSW 10.0 mph 21.0 mph 72% 0.00 in
12:44 79.7 °F 69.0 °F 29.71 in WSW 10.0 mph 20.0 mph 70% 0.00 in
12:49 80.0 °F 69.7 °F 29.71 in WSW 10.0 mph 22.0 mph 71% 0.00 in
12:54 79.8 °F 69.6 °F 29.71 in WSW 10.0 mph 22.0 mph 71% 0.00 in
12:59 80.1 °F 69.0 °F 29.71 in WSW 10.0 mph 18.0 mph 69% 0.00 in
13:04 79.9 °F 69.7 °F 29.71 in WSW 10.0 mph 18.0 mph 71% 0.00 in
13:09 80.3 °F 68.3 °F 29.71 in SW 10.0 mph 17.0 mph 67% 0.00 in
13:14 80.5 °F 69.0 °F 29.71 in SW 7.0 mph 16.0 mph 68% 0.00 in
13:19 80.6 °F 68.6 °F 29.71 in West 12.0 mph 18.0 mph 67% 0.00 in
13:24 80.0 °F 67.6 °F 29.71 in WSW 9.0 mph 21.0 mph 66% 0.00 in
13:29 80.1 °F 69.0 °F 29.71 in WSW 5.0 mph 19.0 mph 69% 0.00 in
13:34 80.8 °F 68.4 °F 29.71 in West 5.0 mph 16.0 mph 66% 0.00 in
13:39 80.5 °F 67.2 °F 29.71 in West 5.0 mph 23.0 mph 64% 0.00 in
13:44 80.6 °F 67.7 °F 29.71 in WSW 8.0 mph 23.0 mph 65% 0.00 in
13:49 80.6 °F 67.3 °F 29.72 in WSW 8.0 mph 18.0 mph 64% 0.00 in
13:59 80.3 °F 67.0 °F 29.71 in WSW 10.0 mph 22.0 mph 64% 0.00 in
14:04 80.2 °F 66.9 °F 29.71 in WSW 9.0 mph 20.0 mph 64% 0.00 in
14:09 80.4 °F 66.6 °F 29.71 in WSW 9.0 mph 22.0 mph 63% 0.00 in
14:14 80.1 °F 66.4 °F 29.71 in WSW 3.0 mph 20.0 mph 63% 0.00 in
14:19 80.3 °F 65.1 °F 29.71 in SW 5.0 mph 20.0 mph 60% 0.00 in
14:24 80.5 °F 65.8 °F 29.71 in WSW 6.0 mph 18.0 mph 61% 0.00 in
14:29 81.0 °F 65.8 °F 29.71 in SW 10.0 mph 22.0 mph 60% 0.00 in
14:34 80.7 °F 66.0 °F 29.71 in WSW 5.0 mph 18.0 mph 61% 0.00 in
14:39 80.9 °F 67.1 °F 29.71 in SW 9.0 mph 20.0 mph 63% 0.00 in
14:44 81.1 °F 67.3 °F 29.71 in WSW 8.0 mph 20.0 mph 63% 0.00 in
14:49 80.9 °F 67.6 °F 29.71 in WSW 7.0 mph 26.0 mph 64% 0.00 in
14:54 80.2 °F 67.4 °F 29.71 in WSW 9.0 mph 26.0 mph 65% 0.00 in
14:59 80.1 °F 66.8 °F 29.71 in WSW 17.0 mph 20.0 mph 64% 0.00 in
15:04 79.7 °F 66.9 °F 29.71 in WNW 14.0 mph 22.0 mph 65% 0.00 in
15:09 79.5 °F 66.7 °F 29.71 in West 9.0 mph 22.0 mph 65% 0.00 in
15:14 80.0 °F 66.7 °F 29.71 in WSW 10.0 mph 22.0 mph 64% 0.00 in
15:19 79.8 °F 66.5 °F 29.71 in WSW 10.0 mph 20.0 mph 64% 0.00 in
15:24 79.4 °F 67.0 °F 29.71 in WSW 10.0 mph 20.0 mph 66% 0.00 in
15:29 79.3 °F 67.0 °F 29.71 in WSW 5.0 mph 20.0 mph 66% 0.00 in
15:34 79.7 °F 66.9 °F 29.71 in SSW 5.0 mph 16.0 mph 65% 0.00 in
15:39 79.4 °F 66.2 °F 29.71 in WSW 11.0 mph 20.0 mph 64% 0.00 in
15:44 79.5 °F 65.8 °F 29.70 in WSW 11.0 mph 22.0 mph 63% 0.00 in
15:49 79.6 °F 65.9 °F 29.70 in WSW 11.0 mph 24.0 mph 63% 0.00 in
15:54 80.0 °F 66.3 °F 29.70 in WSW 9.0 mph 19.0 mph 63% 0.00 in
15:59 79.9 °F 66.2 °F 29.70 in WSW 12.0 mph 19.0 mph 63% 0.00 in
16:04 80.1 °F 66.4 °F 29.70 in WSW 5.0 mph 16.0 mph 63% 0.00 in
16:09 80.2 °F 66.9 °F 29.70 in West 7.0 mph 13.0 mph 64% 0.00 in
16:14 79.8 °F 66.1 °F 29.71 in WSW 9.0 mph 20.0 mph 63% 0.00 in
16:19 79.6 °F 66.8 °F 29.71 in WSW 10.0 mph 21.0 mph 65% 0.00 in
16:24 79.0 °F 66.2 °F 29.71 in WSW 10.0 mph 22.0 mph 65% 0.00 in
16:29 78.7 °F 66.4 °F 29.71 in WSW 10.0 mph 22.0 mph 66% 0.00 in
16:34 77.9 °F 66.5 °F 29.71 in WSW 10.0 mph 22.0 mph 68% 0.00 in
16:39 77.5 °F 66.1 °F 29.70 in WSW 8.0 mph 16.0 mph 68% 0.00 in
16:44 77.3 °F 65.9 °F 29.71 in WSW 9.0 mph 17.0 mph 68% 0.00 in
16:49 77.5 °F 66.5 °F 29.71 in West 8.0 mph 15.0 mph 69% 0.00 in
16:54 77.4 °F 66.4 °F 29.71 in West 13.0 mph 16.0 mph 69% 0.00 in
16:59 76.9 °F 66.4 °F 29.71 in West 9.0 mph 16.0 mph 70% 0.00 in
17:04 76.7 °F 67.0 °F 29.71 in WSW 5.0 mph 20.0 mph 72% 0.00 in
17:09 76.3 °F 66.6 °F 29.71 in SSW 9.0 mph 20.0 mph 72% 0.00 in
17:14 76.1 °F 65.6 °F 29.71 in WSW 9.0 mph 20.0 mph 70% 0.00 in
17:19 76.1 °F 66.0 °F 29.71 in WSW 8.0 mph 16.0 mph 71% 0.00 in
17:24 76.0 °F 66.3 °F 29.72 in WSW 9.0 mph 18.0 mph 72% 0.00 in
17:29 76.0 °F 66.7 °F 29.71 in WSW 8.0 mph 18.0 mph 73% 0.00 in
17:34 75.8 °F 66.5 °F 29.72 in SW 5.0 mph 18.0 mph 73% 0.00 in
17:39 75.6 °F 66.7 °F 29.73 in SW 12.0 mph 15.0 mph 74% 0.00 in
17:44 75.5 °F 67.0 °F 29.72 in WSW 8.0 mph 16.0 mph 75% 0.00 in
17:49 75.5 °F 67.0 °F 29.72 in SSW 7.0 mph 22.0 mph 75% 0.00 in
17:54 75.4 °F 66.5 °F 29.72 in SW 9.0 mph 18.0 mph 74% 0.00 in
17:59 75.3 °F 66.8 °F 29.72 in SW 4.0 mph 16.0 mph 75% 0.00 in
18:04 75.2 °F 66.3 °F 29.72 in WSW 10.0 mph 22.0 mph 74% 0.00 in
18:09 75.1 °F 66.6 °F 29.72 in WSW 11.0 mph 16.0 mph 75% 0.00 in
18:14 75.0 °F 66.5 °F 29.72 in WSW 8.0 mph 16.0 mph 75% 0.00 in
18:19 74.9 °F 66.4 °F 29.72 in WSW 8.0 mph 17.0 mph 75% 0.00 in
18:24 74.9 °F 66.8 °F 29.72 in WSW 8.0 mph 17.0 mph 76% 0.00 in
18:29 74.9 °F 66.4 °F 29.72 in SW 7.0 mph 19.0 mph 75% 0.00 in
18:34 74.9 °F 66.1 °F 29.72 in WNW 4.0 mph 12.0 mph 74% 0.00 in
18:39 74.9 °F 65.7 °F 29.72 in WSW 3.0 mph 16.0 mph 73% 0.00 in
18:44 74.9 °F 65.7 °F 29.73 in WSW 3.0 mph 14.0 mph 73% 0.00 in
18:49 74.9 °F 66.4 °F 29.73 in WSW 4.0 mph 9.0 mph 75% 0.00 in
18:54 74.9 °F 66.8 °F 29.73 in WSW 8.0 mph 11.0 mph 76% 0.00 in
18:59 74.7 °F 66.6 °F 29.73 in WSW 7.0 mph 13.0 mph 76% 0.00 in
19:04 74.6 °F 66.9 °F 29.73 in SW 4.0 mph 8.0 mph 77% 0.00 in
19:09 74.5 °F 66.8 °F 29.74 in WSW 8.0 mph 13.0 mph 77% 0.00 in
19:14 74.4 °F 67.1 °F 29.74 in WSW 6.0 mph 13.0 mph 78% 0.00 in
19:19 74.3 °F 67.0 °F 29.74 in WSW 6.0 mph 12.0 mph 78% 0.00 in
19:24 74.3 °F 67.0 °F 29.74 in SW 6.0 mph 16.0 mph 78% 0.00 in
19:29 74.2 °F 66.9 °F 29.74 in West 13.0 mph 14.0 mph 78% 0.00 in
19:34 74.1 °F 67.2 °F 29.74 in SW 6.0 mph 16.0 mph 79% 0.00 in
19:39 74.1 °F 67.2 °F 29.74 in SW 4.0 mph 15.0 mph 79% 0.00 in
19:44 74.1 °F 67.2 °F 29.74 in WSW 6.0 mph 15.0 mph 79% 0.00 in
19:49 74.0 °F 67.1 °F 29.74 in SW 7.0 mph 15.0 mph 79% 0.00 in
19:54 74.0 °F 67.1 °F 29.74 in SW 7.0 mph 15.0 mph 79% 0.00 in
19:59 73.9 °F 67.3 °F 29.74 in WSW 4.0 mph 11.0 mph 80% 0.00 in
20:04 73.9 °F 67.3 °F 29.74 in WSW 1.0 mph 14.0 mph 80% 0.00 in
20:09 73.9 °F 67.3 °F 29.74 in SSW 7.0 mph 12.0 mph 80% 0.00 in
20:14 73.8 °F 67.2 °F 29.74 in WSW 6.0 mph 17.0 mph 80% 0.00 in
20:19 73.7 °F 67.1 °F 29.74 in WSW 6.0 mph 17.0 mph 80% 0.00 in
20:24 73.7 °F 67.1 °F 29.74 in WSW 8.0 mph 15.0 mph 80% 0.00 in
20:29 73.7 °F 66.8 °F 29.75 in WSW 8.0 mph 17.0 mph 79% 0.00 in
20:34 73.6 °F 66.7 °F 29.74 in SW 5.0 mph 12.0 mph 79% 0.00 in
20:39 73.6 °F 67.0 °F 29.75 in SW 8.0 mph 13.0 mph 80% 0.00 in
20:44 73.6 °F 67.0 °F 29.75 in WSW 11.0 mph 14.0 mph 80% 0.00 in
20:49 73.6 °F 67.0 °F 29.75 in WSW 7.0 mph 14.0 mph 80% 0.00 in
20:54 73.6 °F 67.0 °F 29.75 in WSW 7.0 mph 14.0 mph 80% 0.00 in
20:59 73.6 °F 66.7 °F 29.75 in WSW 8.0 mph 14.0 mph 79% 0.00 in
21:04 73.6 °F 67.0 °F 29.75 in WSW 6.0 mph 14.0 mph 80% 0.00 in
21:09 73.6 °F 66.7 °F 29.75 in West 8.0 mph 13.0 mph 79% 0.00 in
21:14 73.5 °F 66.2 °F 29.75 in WSW 5.0 mph 12.0 mph 78% 0.00 in
21:19 73.5 °F 66.2 °F 29.76 in WSW 5.0 mph 14.0 mph 78% 0.00 in
21:24 73.7 °F 66.4 °F 29.76 in WSW 6.0 mph 14.0 mph 78% 0.00 in
21:29 73.6 °F 66.3 °F 29.76 in SW 2.0 mph 9.0 mph 78% 0.00 in
21:34 73.7 °F 66.4 °F 29.76 in WSW 3.0 mph 8.0 mph 78% 0.00 in
21:39 73.7 °F 66.0 °F 29.76 in SSW 5.0 mph 14.0 mph 77% 0.00 in
21:44 73.6 °F 66.3 °F 29.76 in WNW 3.0 mph 6.0 mph 78% 0.00 in
21:49 73.6 °F 65.9 °F 29.76 in SW 3.0 mph 12.0 mph 77% 0.00 in
21:54 73.5 °F 65.8 °F 29.76 in West 5.0 mph 12.0 mph 77% 0.00 in
21:59 73.4 °F 65.4 °F 29.77 in West 5.0 mph 13.0 mph 76% 0.00 in
22:04 73.3 °F 64.9 °F 29.77 in West 6.0 mph 13.0 mph 75% 0.00 in
22:09 73.1 °F 63.9 °F 29.77 in West 5.0 mph 11.0 mph 73% 0.00 in
22:14 73.0 °F 63.4 °F 29.77 in West 5.0 mph 12.0 mph 72% 0.00 in
22:19 73.0 °F 63.0 °F 29.77 in SW 3.0 mph 11.0 mph 71% 0.00 in
22:24 73.0 °F 63.0 °F 29.77 in SW 3.0 mph 10.0 mph 71% 0.00 in
22:29 73.0 °F 62.6 °F 29.77 in WSW 4.0 mph 10.0 mph 70% 0.00 in
22:34 73.0 °F 62.6 °F 29.77 in WNW 5.0 mph 8.0 mph 70% 0.00 in
22:39 73.0 °F 62.6 °F 29.78 in West 4.0 mph 6.0 mph 70% 0.00 in
22:44 72.9 °F 62.5 °F 29.77 in West 3.0 mph 5.0 mph 70% 0.00 in
22:49 72.8 °F 62.4 °F 29.77 in West 4.0 mph 8.0 mph 70% 0.00 in
22:54 72.8 °F 62.4 °F 29.77 in West 4.0 mph 8.0 mph 70% 0.00 in
22:59 72.8 °F 62.4 °F 29.77 in West 5.0 mph 13.0 mph 70% 0.00 in
23:04 72.7 °F 62.3 °F 29.78 in West 5.0 mph 13.0 mph 70% 0.00 in
23:09 72.6 °F 62.3 °F 29.78 in West 4.0 mph 11.0 mph 70% 0.00 in
23:19 72.6 °F 62.7 °F 29.78 in WNW 7.0 mph 11.0 mph 71% 0.00 in
23:24 72.5 °F 62.6 °F 29.79 in West 4.0 mph 9.0 mph 71% 0.00 in
23:29 72.4 °F 62.5 °F 29.79 in WSW 4.0 mph 9.0 mph 71% 0.00 in
23:34 72.4 °F 62.5 °F 29.79 in WSW 4.0 mph 9.0 mph 71% 0.00 in
23:39 72.3 °F 62.4 °F 29.79 in WSW 3.0 mph 8.0 mph 71% 0.00 in
23:44 72.3 °F 62.4 °F 29.79 in SSW 5.0 mph 8.0 mph 71% 0.00 in
23:49 72.2 °F 62.3 °F 29.79 in SW 2.0 mph 7.0 mph 71% 0.00 in
23:54 72.2 °F 62.3 °F 29.79 in WSW 6.0 mph 10.0 mph 71% 0.00 in
23:59 72.2 °F 62.3 °F 29.80 in SW 4.0 mph 10.0 mph 71% 0.00 in
Buffalo, New York, USA
Compliments of Weather Underground - 2.5 mb